Tracking 35331 objects as of 15-Sep-2026
HD Live streaming from Space Station
objects crossing your sky now

STARLINK-35485

Track STARLINK-35485 now!
10-day predictions
STARLINK-35485 is classified as:


NORAD ID: 66251
Int'l Code: 2025-245T
Launch date: October 29, 2025
Source: United States (US)
Launch site: AIR FORCE EASTERN TEST RANGE (AFETR)
Your satellite tracking list
Your tracking list is empty




NASA's NSSDC Master Catalog

Two Line Element Set (TLE):
1 66251U 25245T   26258.32971143  .00015339  00000-0  50485-3 0  9997
2 66251  53.1595 121.4442 0000296 225.2835 134.8143 15.31711488 50099
Source of the keplerian elements: AFSPC